Flag for Italy Weather past 2 weeks in Venice, Italy

46 °F


Feels Like: 46 °F
Forecast: 38 / 43 °F
Wind: 2 mph from North

Location: Venice / Tessera

Current Time: Nov 30, 2015 at 3:36:20 PM

Latest Report: Nov 30, 2015 at 2:50 PM

Visibility: 6 mi

Pressure: 30.24 "Hg

Humidity: 66%

Dew point: 36 °F

Location of VeniceLocation

Historic Weather in Venice — Graph


Venice temperature yesterday

Maximum temperature yesterday: 48 °F (at 1:20 PM)
Minimum temperature yesterday: 32 °F (at 5:20 AM)
Average temperature yesterday: 40 °F

Past Weeks' High & Low Weather Summary

High57 °F (Nov 19, 1:50 PM)100% (Nov 20, 4:20 AM)30.30 "Hg (Nov 20, 4:20 AM)
Low30 °F (Nov 30, 7:50 AM)43% (Nov 27, 12:20 PM)29.21 "Hg (Nov 21, 1:50 PM)
Average45 °F78%29.96 "Hg
* Reported Nov 15 2:20 PM — Nov 30 2:20 PM, Venice, Weather by CustomWeather, © 2015

Note: Actual official high and low records may vary slightly from our data, if they occured in-between our weather recording intervals... More about our weather records


Venice weather history for previous 24 hours

Time TempWeatherWind HumidityBarometerVisibility
2:20 PM
Mon, Nov 30
46 °FClear.1 mph66%30.27 "Hg6 mi
1:50 PM46 °FClear.2 mph66%30.24 "Hg6 mi
1:20 PM46 °FClear.2 mph66%30.24 "Hg6 mi
12:50 PM45 °FClear.2 mph66%30.27 "Hg6 mi
12:20 PM45 °FClear.3 mph66%30.27 "Hg6 mi
11:50 AM43 °FClear.5 mph66%30.27 "Hg6 mi
11:20 AM43 °FClear.5 mph66%30.30 "Hg6 mi
10:50 AM41 °FClear.3 mph76%30.30 "Hg6 mi
10:20 AM37 °FClear.5 mph81%30.30 "Hg6 mi
9:50 AM36 °FClear.3 mph87%30.27 "Hg6 mi
9:20 AM34 °FClear.3 mph87%30.27 "Hg6 mi
8:50 AM32 °FPassing clouds.3 mph93%30.27 "HgN/A
8:20 AM32 °FSunny.5 mph93%30.27 "Hg10 mi
7:50 AM30 °FSunny.3 mph93%30.27 "Hg10 mi
7:20 AM32 °FClear.2 mph93%30.24 "Hg10 mi
6:50 AM32 °FPassing clouds.5 mph93%30.24 "HgN/A
6:20 AM32 °FClear.3 mph93%30.24 "Hg4 mi
5:50 AM32 °FPassing clouds.3 mph93%30.24 "Hg4 mi
5:20 AM32 °FPassing clouds.5 mph93%30.24 "Hg4 mi
4:20 AM32 °FIce fog.3 mph93%30.27 "Hg3 mi
3:50 AM32 °FIce fog.2 mph93%30.24 "Hg3 mi
3:20 AM32 °FIce fog.3 mph100%30.27 "Hg3 mi
2:50 AM32 °FIce fog.6 mph100%30.27 "Hg2 mi
1:50 AM34 °FFog.3 mph93%30.24 "Hg2 mi
1:20 AM36 °FFog.2 mph93%30.27 "Hg3 mi
12:50 AM34 °FFog.2 mph100%30.27 "Hg3 mi
12:20 AM34 °FFog.2 mph100%30.27 "Hg3 mi
11:20 PM
Sun, Nov 29
36 °FPassing clouds.2 mph93%30.27 "Hg4 mi
10:50 PM37 °FClear.1 mph93%30.24 "Hg4 mi
10:20 PM37 °FClear.2 mph93%30.24 "Hg4 mi
9:50 PM39 °FClear.5 mph87%30.24 "Hg4 mi
9:20 PM39 °FClear.5 mph87%30.27 "Hg4 mi
8:50 PM39 °FClear.5 mph87%30.24 "Hg4 mi
8:20 PM41 °FClear.5 mph81%30.24 "Hg4 mi
7:50 PM41 °FClear.6 mph81%30.27 "Hg4 mi
7:20 PM41 °FClear.6 mph81%30.24 "Hg4 mi
6:50 PM41 °FClear.8 mph87%30.24 "Hg4 mi
6:20 PM43 °FClear.5 mph87%30.21 "Hg4 mi
5:50 PM45 °FClear.3 mph81%30.21 "Hg4 mi
5:20 PM43 °FClear.8 mph81%30.21 "Hg5 mi
4:50 PM43 °FClear.6 mph81%30.21 "Hg5 mi
4:20 PM45 °FClear.6 mph76%30.21 "Hg6 mi
3:50 PM46 °FClear.6 mph66%30.21 "Hg6 mi
3:20 PM46 °FClear.5 mph71%30.21 "Hg6 mi
Weather by CustomWeather, © 2015

See weather overviewHow to use our weather pages